AAL689 KCVG-KDCA

Flight info

Callsign AAL689
Flight time 0h 56m
Altitude 35000
Route GIPLE7 HVQ TRUPS5
Aircraft B738/M-SDE2E3FGHIRWXY/LB1

Departure

Time 2026-05-05 01:55
Airport Cincinnati Northern Kentucky International Airport (KCVG)

Arrival

Time 2026-05-05 02:51
Airport Ronald Reagan Washington National Airport (KDCA)
Time Latitude Longitude Altitude Speed Heading
2026-05-05 01:34 39.05083 -84.65265 878 ft 0 kts 210°
2026-05-05 01:47 39.05084 -84.65265 878 ft 2 kts 210°
2026-05-05 01:48 39.05106 -84.65251 879 ft 4 kts 189°
2026-05-05 01:48 39.05132 -84.65252 880 ft 4 kts 156°
2026-05-05 01:48 39.05152 -84.65272 880 ft 4 kts 116°
2026-05-05 01:48 39.05157 -84.65291 881 ft 0 kts 90°
2026-05-05 01:51 39.05156 -84.65286 881 ft 4 kts 90°
2026-05-05 01:51 39.05156 -84.65174 879 ft 20 kts 90°
2026-05-05 01:51 39.05154 -84.64992 872 ft 14 kts 91°
2026-05-05 01:51 39.05187 -84.64887 870 ft 13 kts 27°
2026-05-05 01:52 39.05278 -84.64881 869 ft 13 kts
2026-05-05 01:52 39.05367 -84.64879 868 ft 13 kts
2026-05-05 01:52 39.05454 -84.64879 867 ft 12 kts 360°
2026-05-05 01:52 39.05538 -84.64879 867 ft 12 kts
2026-05-05 01:53 39.05574 -84.64838 867 ft 0 kts 78°
2026-05-05 01:53 39.05575 -84.64802 867 ft 8 kts 89°
2026-05-05 01:53 39.05574 -84.64729 868 ft 9 kts 98°
2026-05-05 01:53 39.05532 -84.64677 868 ft 9 kts 160°
2026-05-05 01:54 39.05454 -84.64669 867 ft 24 kts 181°
2026-05-05 01:54 39.05054 -84.64671 872 ft 90 kts 180°
2026-05-05 01:54 39.04233 -84.64674 871 ft 144 kts 180°
2026-05-05 01:54 39.03175 -84.64680 1252 ft 158 kts 182°
2026-05-05 01:55 39.02022 -84.64647 1767 ft 169 kts 183°
2026-05-05 01:55 39.00888 -84.64644 2635 ft 156 kts 186°
2026-05-05 01:55 38.99776 -84.64360 3216 ft 170 kts 176°
2026-05-05 01:55 38.98591 -84.63953 3719 ft 184 kts 174°
2026-05-05 01:56 38.97369 -84.63223 4227 ft 208 kts 155°
2026-05-05 01:56 38.96167 -84.61945 4469 ft 240 kts 147°
2026-05-05 01:56 38.94924 -84.60343 4672 ft 275 kts 129°
2026-05-05 01:56 38.94366 -84.57884 5186 ft 300 kts 99°
2026-05-05 01:57 38.94179 -84.55197 5904 ft 302 kts 103°
2026-05-05 01:57 38.93845 -84.52524 6650 ft 304 kts 105°
2026-05-05 01:57 38.93432 -84.49858 7390 ft 306 kts 106°
2026-05-05 01:57 38.93030 -84.47138 8103 ft 311 kts 106°
2026-05-05 01:58 38.92641 -84.44373 8774 ft 319 kts 101°
2026-05-05 01:58 38.92356 -84.41534 9562 ft 322 kts 99°
2026-05-05 01:58 38.92067 -84.38705 10279 ft 325 kts 100°
2026-05-05 01:58 38.91726 -84.35760 10631 ft 345 kts 101°
2026-05-05 01:59 38.91330 -84.32618 10805 ft 367 kts 102°
2026-05-05 01:59 38.90881 -84.29302 11060 ft 385 kts 101°
2026-05-05 01:59 38.90451 -84.25850 11424 ft 400 kts 101°
2026-05-05 01:59 38.90005 -84.22243 11713 ft 415 kts 100°
2026-05-05 02:00 38.89547 -84.18555 12293 ft 421 kts 101°
2026-05-05 02:00 38.89081 -84.14831 12951 ft 424 kts 101°
2026-05-05 02:00 38.88607 -84.11080 13660 ft 427 kts 101°
2026-05-05 02:00 38.88127 -84.07298 14298 ft 430 kts 101°
2026-05-05 02:01 38.87623 -84.03501 14983 ft 432 kts 103°
2026-05-05 02:01 38.86909 -83.99748 15704 ft 433 kts 107°
2026-05-05 02:01 38.86069 -83.96025 16392 ft 435 kts 108°
2026-05-05 02:01 38.85203 -83.92294 17047 ft 438 kts 108°
2026-05-05 02:02 38.84346 -83.88530 17672 ft 442 kts 108°
2026-05-05 02:02 38.83504 -83.84718 18267 ft 445 kts 107°
2026-05-05 02:02 38.82681 -83.80913 18803 ft 449 kts 107°
2026-05-05 02:02 38.81847 -83.77034 19310 ft 453 kts 107°
2026-05-05 02:03 38.81004 -83.73130 19804 ft 457 kts 107°
2026-05-05 02:03 38.80151 -83.69192 20288 ft 461 kts 107°
2026-05-05 02:03 38.79285 -83.65209 20787 ft 464 kts 107°
2026-05-05 02:03 38.78416 -83.61212 21252 ft 468 kts 107°
2026-05-05 02:04 38.77539 -83.57181 21715 ft 471 kts 107°
2026-05-05 02:04 38.76662 -83.53113 22170 ft 475 kts 104°
2026-05-05 02:04 38.76226 -83.48909 22596 ft 479 kts 91°
2026-05-05 02:04 38.76230 -83.44628 23071 ft 482 kts 89°
2026-05-05 02:05 38.76300 -83.40318 23476 ft 485 kts 88°
2026-05-05 02:05 38.76368 -83.35979 23820 ft 488 kts 89°
2026-05-05 02:05 38.76412 -83.31673 24203 ft 490 kts 89°
2026-05-05 02:05 38.76427 -83.27306 24614 ft 491 kts 90°
2026-05-05 02:06 38.76420 -83.22918 25007 ft 493 kts 90°
2026-05-05 02:06 38.76402 -83.18517 25356 ft 495 kts 90°
2026-05-05 02:06 38.76380 -83.14101 25693 ft 498 kts 90°
2026-05-05 02:06 38.76358 -83.09655 25997 ft 501 kts 90°
2026-05-05 02:07 38.76336 -83.05167 26342 ft 502 kts 90°
2026-05-05 02:07 38.76314 -83.00705 26825 ft 500 kts 90°
2026-05-05 02:07 38.76292 -82.96255 27386 ft 497 kts 90°
2026-05-05 02:07 38.76260 -82.91827 27922 ft 495 kts 92°
2026-05-05 02:08 38.75753 -82.87482 28334 ft 494 kts 109°
2026-05-05 02:08 38.74389 -82.83470 28833 ft 490 kts 117°
2026-05-05 02:08 38.72902 -82.79549 29371 ft 488 kts 117°
2026-05-05 02:08 38.71428 -82.75640 29819 ft 488 kts 117°
2026-05-05 02:09 38.69964 -82.71710 30162 ft 489 kts 117°
2026-05-05 02:09 38.68516 -82.67780 30539 ft 488 kts 116°
2026-05-05 02:09 38.67077 -82.63846 30968 ft 487 kts 116°
2026-05-05 02:09 38.65647 -82.59921 31352 ft 486 kts 116°
2026-05-05 02:10 38.64234 -82.56043 31599 ft 489 kts 116°
2026-05-05 02:10 38.62795 -82.52096 31869 ft 490 kts 116°
2026-05-05 02:10 38.61351 -82.48144 32282 ft 488 kts 116°
2026-05-05 02:10 38.59917 -82.44224 32726 ft 486 kts 116°
2026-05-05 02:11 38.58487 -82.40324 33139 ft 484 kts 116°
2026-05-05 02:11 38.57051 -82.36416 33427 ft 486 kts 116°
2026-05-05 02:11 38.55608 -82.32493 33634 ft 489 kts 116°
2026-05-05 02:11 38.54163 -82.28570 33972 ft 488 kts 116°
2026-05-05 02:12 38.52721 -82.24658 34328 ft 485 kts 116°
2026-05-05 02:12 38.49847 -82.16880 34876 ft 485 kts 116°
2026-05-05 02:13 38.46936 -82.09022 34885 ft 494 kts 116°
2026-05-05 02:13 38.43976 -82.01052 34881 ft 499 kts 116°
2026-05-05 02:14 38.40997 -81.93050 34885 ft 499 kts 116°
2026-05-05 02:14 38.38036 -81.85112 34889 ft 499 kts 116°
2026-05-05 02:15 38.35191 -81.77059 34872 ft 500 kts 106°
2026-05-05 02:15 38.34685 -81.72693 34919 ft 499 kts 91°
2026-05-05 02:15 38.34580 -81.68270 34902 ft 500 kts 90°
2026-05-05 02:16 38.34405 -81.59403 34899 ft 501 kts 91°
2026-05-05 02:16 38.34167 -81.50522 34898 ft 502 kts 91°
2026-05-05 02:17 38.33878 -81.41641 34905 ft 502 kts 91°
2026-05-05 02:17 38.33573 -81.32780 34912 ft 500 kts 91°
2026-05-05 02:18 38.33264 -81.23933 34903 ft 498 kts 91°
2026-05-05 02:18 38.32956 -81.15200 34905 ft 495 kts 92°
2026-05-05 02:19 38.32642 -81.06447 34907 ft 494 kts 92°
2026-05-05 02:19 38.32321 -80.97713 34916 ft 493 kts 92°
2026-05-05 02:20 38.31994 -80.88995 34922 ft 492 kts 92°
2026-05-05 02:20 38.31663 -80.80293 34924 ft 492 kts 92°
2026-05-05 02:21 38.31328 -80.71596 34938 ft 492 kts 92°
2026-05-05 02:21 38.30998 -80.62891 34941 ft 492 kts 92°
2026-05-05 02:22 38.30664 -80.54199 34959 ft 492 kts 92°
2026-05-05 02:22 38.30323 -80.45494 34970 ft 492 kts 92°
2026-05-05 02:23 38.29974 -80.36796 34962 ft 492 kts 92°
2026-05-05 02:23 38.29618 -80.28096 34968 ft 492 kts 92°
2026-05-05 02:24 38.29258 -80.19453 34978 ft 492 kts 92°
2026-05-05 02:24 38.28950 -80.12166 34969 ft 492 kts 93°
2026-05-05 02:25 38.28577 -80.03485 34974 ft 491 kts 93°
2026-05-05 02:25 38.28136 -79.93393 34975 ft 491 kts 93°
2026-05-05 02:26 38.27813 -79.86117 34977 ft 491 kts 93°
2026-05-05 02:26 38.27422 -79.77435 34965 ft 491 kts 93°
2026-05-05 02:26 38.27493 -79.73105 34961 ft 490 kts 79°
2026-05-05 02:27 38.28439 -79.69029 34988 ft 486 kts 65°
2026-05-05 02:27 38.31217 -79.61177 34979 ft 486 kts 63°
2026-05-05 02:28 38.34040 -79.53286 34328 ft 495 kts 64°
2026-05-05 02:28 38.35436 -79.49268 33671 ft 495 kts 64°
2026-05-05 02:28 38.36809 -79.45257 32926 ft 493 kts 64°
2026-05-05 02:28 38.38169 -79.41261 32225 ft 491 kts 64°
2026-05-05 02:29 38.39523 -79.37278 31756 ft 488 kts 64°
2026-05-05 02:29 38.40878 -79.33301 31269 ft 491 kts 64°
2026-05-05 02:29 38.42222 -79.29329 30750 ft 485 kts 65°
2026-05-05 02:29 38.43241 -79.25236 30256 ft 482 kts 75°
2026-05-05 02:30 38.43916 -79.21125 29733 ft 477 kts 77°
2026-05-05 02:30 38.44546 -79.16941 29181 ft 471 kts 77°
2026-05-05 02:30 38.45178 -79.12921 28697 ft 465 kts 76°
2026-05-05 02:30 38.45858 -79.08907 28199 ft 459 kts 75°
2026-05-05 02:31 38.46551 -79.04959 27720 ft 453 kts 75°
2026-05-05 02:31 38.47240 -79.01064 27225 ft 448 kts 75°
2026-05-05 02:31 38.47917 -78.97199 26748 ft 443 kts 75°
2026-05-05 02:31 38.48583 -78.93374 26272 ft 439 kts 75°
2026-05-05 02:32 38.49240 -78.89589 25810 ft 435 kts 75°
2026-05-05 02:32 38.49890 -78.85835 25351 ft 431 kts 76°
2026-05-05 02:32 38.50515 -78.82092 24896 ft 432 kts 76°
2026-05-05 02:32 38.51107 -78.78328 24441 ft 434 kts 77°
2026-05-05 02:33 38.51691 -78.74545 23968 ft 434 kts 77°
2026-05-05 02:33 38.52277 -78.70772 23484 ft 432 kts 77°
2026-05-05 02:33 38.52856 -78.67072 22956 ft 430 kts 77°
2026-05-05 02:33 38.53444 -78.63343 22483 ft 425 kts 77°
2026-05-05 02:34 38.54029 -78.59671 22032 ft 421 kts 77°
2026-05-05 02:34 38.54613 -78.56024 21589 ft 417 kts 77°
2026-05-05 02:34 38.55190 -78.52406 21130 ft 414 kts 77°
2026-05-05 02:34 38.55762 -78.48816 20689 ft 411 kts 77°
2026-05-05 02:35 38.56328 -78.45249 20241 ft 408 kts 77°
2026-05-05 02:35 38.56889 -78.41703 19803 ft 405 kts 77°
2026-05-05 02:35 38.57451 -78.38188 19369 ft 403 kts 77°
2026-05-05 02:35 38.58054 -78.34701 18934 ft 400 kts 76°
2026-05-05 02:36 38.58668 -78.31238 18516 ft 398 kts 76°
2026-05-05 02:36 38.59266 -78.27831 18073 ft 397 kts 76°
2026-05-05 02:36 38.59875 -78.24403 17583 ft 393 kts 74°
2026-05-05 02:36 38.60766 -78.21128 17154 ft 387 kts 65°
2026-05-05 02:37 38.61849 -78.18003 16703 ft 382 kts 63°
2026-05-05 02:37 38.62927 -78.14915 16301 ft 379 kts 64°
2026-05-05 02:37 38.63959 -78.11825 15880 ft 376 kts 64°
2026-05-05 02:37 38.64960 -78.08745 15482 ft 374 kts 64°
2026-05-05 02:38 38.65942 -78.05689 15147 ft 369 kts 64°
2026-05-05 02:38 38.66918 -78.02645 14734 ft 368 kts 64°
2026-05-05 02:38 38.67885 -77.99625 14320 ft 366 kts 64°
2026-05-05 02:38 38.68849 -77.96617 13915 ft 364 kts 64°
2026-05-05 02:39 38.69795 -77.93666 13507 ft 362 kts 64°
2026-05-05 02:39 38.70742 -77.90708 13291 ft 354 kts 64°
2026-05-05 02:39 38.71667 -77.87813 13157 ft 349 kts 64°
2026-05-05 02:39 38.72579 -77.84958 13015 ft 343 kts 64°
2026-05-05 02:40 38.73583 -77.82240 12786 ft 331 kts 49°
2026-05-05 02:40 38.75057 -77.80064 12548 ft 320 kts 41°
2026-05-05 02:40 38.76565 -77.77976 12204 ft 319 kts 42°
2026-05-05 02:40 38.78062 -77.75866 11870 ft 318 kts 43°
2026-05-05 02:41 38.79531 -77.73765 11557 ft 316 kts 43°
2026-05-05 02:41 38.80992 -77.71660 11241 ft 314 kts 43°
2026-05-05 02:41 38.82439 -77.69563 10905 ft 313 kts 44°
2026-05-05 02:41 38.83863 -77.67444 10565 ft 313 kts 45°
2026-05-05 02:42 38.85276 -77.65314 10224 ft 313 kts 45°
2026-05-05 02:42 38.86680 -77.63192 9876 ft 310 kts 45°
2026-05-05 02:42 38.88060 -77.61105 9505 ft 304 kts 45°
2026-05-05 02:42 38.89414 -77.59062 9157 ft 298 kts 45°
2026-05-05 02:43 38.90723 -77.57027 8822 ft 292 kts 46°
2026-05-05 02:43 38.92042 -77.55085 8513 ft 286 kts 44°
2026-05-05 02:43 38.93322 -77.53182 8202 ft 286 kts 44°
2026-05-05 02:43 38.94559 -77.51151 7892 ft 294 kts 56°
2026-05-05 02:44 38.95454 -77.48756 7573 ft 299 kts 64°
2026-05-05 02:44 38.96230 -77.46278 7232 ft 300 kts 65°
2026-05-05 02:44 38.97002 -77.43784 6892 ft 299 kts 65°
2026-05-05 02:44 38.97788 -77.41319 6552 ft 296 kts 65°
2026-05-05 02:45 38.98581 -77.38898 6212 ft 292 kts 64°
2026-05-05 02:45 38.99373 -77.36507 5865 ft 289 kts 64°
2026-05-05 02:45 39.00158 -77.34152 5535 ft 286 kts 65°
2026-05-05 02:45 39.00933 -77.31817 5203 ft 282 kts 64°
2026-05-05 02:46 39.01710 -77.29513 4907 ft 278 kts 65°
2026-05-05 02:46 39.02473 -77.27238 4595 ft 275 kts 67°
2026-05-05 02:46 39.02804 -77.24849 4280 ft 270 kts 98°
2026-05-05 02:46 39.02232 -77.22650 4043 ft 252 kts 126°
2026-05-05 02:47 39.01161 -77.20985 3768 ft 234 kts 143°
2026-05-05 02:47 38.99997 -77.19587 3545 ft 224 kts 143°
2026-05-05 02:47 38.98882 -77.18227 3239 ft 218 kts 145°
2026-05-05 02:47 38.97788 -77.16939 2978 ft 209 kts 143°
2026-05-05 02:48 38.96790 -77.15677 2755 ft 198 kts 144°
2026-05-05 02:48 38.95815 -77.14544 2516 ft 181 kts 149°
2026-05-05 02:48 38.94880 -77.13526 2363 ft 173 kts 147°
2026-05-05 02:48 38.93977 -77.12507 2114 ft 172 kts 149°
2026-05-05 02:49 38.93069 -77.11532 1803 ft 165 kts 156°
2026-05-05 02:49 38.92133 -77.10718 1634 ft 164 kts 147°
2026-05-05 02:49 38.91305 -77.09643 1335 ft 168 kts 142°
2026-05-05 02:49 38.90651 -77.08366 1167 ft 175 kts 121°
2026-05-05 02:50 38.90096 -77.06988 977 ft 171 kts 127°
2026-05-05 02:50 38.89288 -77.05890 890 ft 170 kts 141°
2026-05-05 02:50 38.88397 -77.04894 643 ft 165 kts 143°
2026-05-05 02:50 38.87480 -77.04097 386 ft 153 kts 162°
2026-05-05 02:51 38.86481 -77.03893 138 ft 144 kts 178°
2026-05-05 02:51 38.85513 -77.03807 27 ft 129 kts 176°
2026-05-05 02:51 38.84980 -77.03756 27 ft 23 kts 179°
2026-05-05 02:51 38.84894 -77.03799 22 ft 2 kts 231°
2026-05-05 02:52 38.84888 -77.03810 24 ft 1 kts 237°
2026-05-05 02:52 38.84884 -77.03821 23 ft 1 kts 251°
2026-05-05 02:52 38.84903 -77.03879 23 ft 12 kts 326°
2026-05-05 02:52 38.84962 -77.03893 24 ft 9 kts 349°
2026-05-05 02:53 38.85048 -77.03906 24 ft 15 kts 354°
2026-05-05 02:53 38.85150 -77.03916 23 ft 14 kts 357°
2026-05-05 02:53 38.85248 -77.03926 23 ft 14 kts 356°
2026-05-05 02:53 38.85323 -77.03945 23 ft 10 kts 317°
2026-05-05 02:54 38.85329 -77.04029 23 ft 8 kts 257°
2026-05-05 02:54 38.85331 -77.04071 23 ft 3 kts 295°
2026-05-05 02:54 38.85349 -77.04091 27 ft 3 kts 324°
2026-05-05 02:54 38.85363 -77.04103 23 ft 1 kts 327°
2026-05-05 02:55 38.85368 -77.04107 23 ft 1 kts 327°
2026-05-05 02:55 38.85369 -77.04108 23 ft 0 kts 327°